| time (UTC) | temp F | wind direction | speed MPH | gust MPH | rain 1hr in | rain 24hr in | rain mn in | humidity % | barometer mb |
| 20260508213116 | 79 | 0 | 8.0 | 15.0 | 0.00 | 0.00 | 0.00 | 60 | 1007.7 |
| 20260508212116 | 80 | 0 | 8.0 | 11.0 | 0.00 | 0.00 | 0.00 | 58 | 1007.9 |
| 20260508211116 | 79 | 0 | 5.0 | 7.0 | 0.00 | 0.00 | 0.00 | 59 | 1007.9 |
| 20260508210116 | 79 | 0 | 5.0 | 10.0 | 0.00 | 0.00 | 0.00 | 59 | 1008.1 |
| 20260508205116 | 79 | 0 | 9.0 | 12.0 | 0.00 | 0.00 | 0.00 | 58 | 1008.3 |
| 20260508204116 | 79 | 0 | 6.0 | 11.0 | 0.00 | 0.00 | 0.00 | 58 | 1008.5 |
| 20260508203116 | 79 | 0 | 10.0 | 14.0 | 0.00 | 0.00 | 0.00 | 57 | 1008.6 |
| 20260508202116 | 79 | 0 | 9.0 | 14.0 | 0.00 | 0.00 | 0.00 | 57 | 1008.6 |
| 20260508201136 | 79 | 0 | 8.0 | 11.0 | 0.00 | 0.00 | 0.00 | 60 | 1008.7 |
| 20260508200116 | 78 | 0 | 8.0 | 11.0 | 0.00 | 0.00 | 0.00 | 59 | 1008.8 |
| 20260508195116 | 78 | 0 | 8.0 | 13.0 | 0.00 | 0.00 | 0.00 | 58 | 1008.9 |
| 20260508194116 | 78 | 0 | 5.0 | 11.0 | 0.00 | 0.00 | 0.00 | 59 | 1008.9 |
| 20260508193116 | 78 | 0 | 9.0 | 13.0 | 0.00 | 0.00 | 0.00 | 58 | 1009.1 |
| 20260508192116 | 77 | 0 | 9.0 | 11.0 | 0.00 | 0.00 | 0.00 | 59 | 1009.2 |
| 20260508191116 | 77 | 0 | 6.0 | 9.0 | 0.00 | 0.00 | 0.00 | 58 | 1009.4 |
| 20260508190116 | 76 | 0 | 5.0 | 10.0 | 0.00 | 0.00 | 0.00 | 59 | 1009.4 |
| 20260508185116 | 76 | 0 | 7.0 | 10.0 | 0.00 | 0.00 | 0.00 | 59 | 1009.6 |
| 20260508184115 | 76 | 0 | 5.0 | 8.0 | 0.00 | 0.00 | 0.00 | 59 | 1009.9 |
| 20260508183116 | 75 | 0 | 4.0 | 7.0 | 0.00 | 0.00 | 0.00 | 60 | 1010.1 |
| 20260508182115 | 75 | 0 | 6.0 | 8.0 | 0.00 | 0.00 | 0.00 | 61 | 1010.4 |
| 20260508181116 | 75 | 0 | 7.0 | 10.0 | 0.00 | 0.00 | 0.00 | 61 | 1010.7 |
| 20260508180116 | 75 | 0 | 6.0 | 11.0 | 0.00 | 0.00 | 0.00 | 62 | 1011.0 |
| 20260508175115 | 75 | 0 | 5.0 | 7.0 | 0.00 | 0.00 | 0.00 | 61 | 1011.1 |
| 20260508174116 | 74 | 0 | 5.0 | 10.0 | 0.00 | 0.00 | 0.00 | 67 | 1011.3 |
| 20260508173115 | 73 | 248 | 3.0 | 5.0 | 0.00 | 0.00 | 0.00 | 66 | 1011.3 |
| 20260508172116 | 72 | 0 | 4.0 | 6.0 | 0.00 | 0.00 | 0.00 | 66 | 1011.7 |
| 20260508171115 | 72 | 0 | 6.0 | 14.0 | 0.00 | 0.00 | 0.00 | 64 | 1011.8 |
| 20260508170116 | 72 | 0 | 4.0 | 6.0 | 0.00 | 0.00 | 0.00 | 66 | 1011.8 |
| 20260508165116 | 72 | 0 | 6.0 | 9.0 | 0.00 | 0.00 | 0.00 | 65 | 1012.2 |
| 20260508164115 | 72 | 0 | 5.0 | 7.0 | 0.00 | 0.00 | 0.00 | 65 | 1012.4 |
| 20260508163116 | 72 | 0 | 5.0 | 9.0 | 0.00 | 0.00 | 0.00 | 64 | 1012.6 |
| 20260508162115 | 71 | 0 | 1.0 | 2.0 | 0.00 | 0.00 | 0.00 | 67 | 1012.7 |
| 20260508161115 | 69 | 0 | 3.0 | 5.0 | 0.00 | 0.00 | 0.00 | 70 | 1012.7 |
| 20260508160115 | 68 | 225 | 4.0 | 6.0 | 0.00 | 0.00 | 0.00 | 74 | 1012.7 |
| 20260508155115 | 67 | 0 | 6.0 | 8.0 | 0.00 | 0.00 | 0.00 | 75 | 1012.8 |
| 20260508154115 | 67 | 0 | 2.0 | 4.0 | 0.00 | 0.00 | 0.00 | 78 | 1012.9 |
| 20260508153115 | 65 | 0 | 2.0 | 5.0 | 0.00 | 0.00 | 0.00 | 80 | 1012.8 |
| 20260508152115 | 64 | 0 | 6.0 | 7.0 | 0.00 | 0.00 | 0.00 | 80 | 1013.1 |
| 20260508151115 | 63 | 0 | 4.0 | 7.0 | 0.00 | 0.00 | 0.00 | 83 | 1013.0 |
| 20260508150115 | 62 | 0 | 2.0 | 5.0 | 0.00 | 0.00 | 0.00 | 82 | 1013.2 |
| 20260508145115 | 62 | 0 | 4.0 | 6.0 | 0.00 | 0.00 | 0.00 | 81 | 1013.4 |
| 20260508144137 | 62 | 0 | 4.0 | 6.0 | 0.00 | 0.00 | 0.00 | 81 | 1013.5 |
| 20260508143117 | 62 | 203 | 1.0 | 4.0 | 0.00 | 0.00 | 0.00 | 83 | 1013.5 |
| 20260508142117 | 62 | 0 | 2.0 | 5.0 | 0.00 | 0.00 | 0.00 | 84 | 1013.1 |
| 20260508141116 | 62 | 0 | 2.0 | 6.0 | 0.00 | 0.00 | 0.00 | 84 | 1013.0 |
| 20260508140117 | 61 | 0 | 4.0 | 5.0 | 0.00 | 0.00 | 0.00 | 83 | 1013.5 |
| 20260508135117 | 61 | 0 | 3.0 | 6.0 | 0.00 | 0.00 | 0.00 | 83 | 1013.8 |
| 20260508134117 | 61 | 0 | 4.0 | 5.0 | 0.00 | 0.00 | 0.00 | 83 | 1014.1 |
| 20260508133117 | 61 | 0 | 4.0 | 6.0 | 0.00 | 0.00 | 0.00 | 84 | 1013.9 |
| 20260508132137 | 61 | 0 | 6.0 | 12.0 | 0.00 | 0.00 | 0.00 | 85 | 1014.0 |
| 20260508131117 | 60 | 0 | 5.0 | 7.0 | 0.00 | 0.00 | 0.00 | 86 | 1013.9 |
| 20260508130117 | 60 | 0 | 5.0 | 6.0 | 0.00 | 0.00 | 0.00 | 85 | 1013.8 |
| 20260508125117 | 60 | 0 | 2.0 | 6.0 | 0.00 | 0.00 | 0.00 | 87 | 1013.8 |
| 20260508124117 | 59 | 0 | 3.0 | 7.0 | 0.00 | 0.00 | 0.00 | 86 | 1014.0 |
| 20260508123117 | 59 | 0 | 5.0 | 7.0 | 0.00 | 0.00 | 0.00 | 87 | 1014.1 |
| 20260508122117 | 59 | 0 | 4.0 | 8.0 | 0.00 | 0.00 | 0.00 | 87 | 1014.1 |
| 20260508121117 | 58 | 0 | 3.0 | 5.0 | 0.00 | 0.00 | 0.00 | 88 | 1013.9 |
| 20260508120117 | 57 | 0 | 3.0 | 5.0 | 0.00 | 0.00 | 0.00 | 88 | 1013.8 |
| 20260508115117 | 57 | 0 | 3.0 | 4.0 | 0.00 | 0.00 | 0.00 | 88 | 1013.7 |
| 20260508114117 | 57 | 0 | 2.0 | 5.0 | 0.00 | 0.00 | 0.00 | 87 | 1013.7 |
| 20260508113117 | 57 | 0 | 3.0 | 5.0 | 0.00 | 0.00 | 0.00 | 87 | 1013.7 |
| 20260508112117 | 57 | 0 | 5.0 | 6.0 | 0.00 | 0.00 | 0.00 | 87 | 1013.4 |
| 20260508111117 | 57 | 0 | 1.0 | 2.0 | 0.00 | 0.00 | 0.00 | 87 | 1013.4 |
| 20260508110117 | 57 | 0 | 1.0 | 2.0 | 0.00 | 0.00 | 0.00 | 87 | 1013.1 |
| 20260508105117 | 56 | 0 | 2.0 | 3.0 | 0.00 | 0.00 | 0.00 | 87 | 1013.3 |
| 20260508104117 | 57 | 135 | 1.0 | 1.0 | 0.00 | 0.00 | 0.00 | 86 | 1013.3 |
| 20260508103137 | 57 | 0.0 | 0.0 | 0.00 | 0.00 | 0.00 | 86 | 1012.7 | |
| 20260508102137 | 57 | 0.0 | 0.0 | 0.00 | 0.00 | 0.00 | 86 | 1012.9 | |
| 20260508101136 | 57 | 0.0 | 0.0 | 0.00 | 0.00 | 0.00 | 86 | 1012.6 | |
| 20260508100116 | 57 | 0.0 | 0.0 | 0.00 | 0.00 | 0.00 | 85 | 1012.7 | |
| 20260508095116 | 57 | 0 | 2.0 | 4.0 | 0.00 | 0.00 | 0.00 | 85 | 1012.7 |
| 20260508094116 | 58 | 0 | 1.0 | 3.0 | 0.00 | 0.00 | 0.00 | 85 | 1012.9 |
| 20260508093116 | 58 | 0 | 2.0 | 4.0 | 0.00 | 0.00 | 0.00 | 85 | 1012.8 |
| 20260508092116 | 58 | 0 | 3.0 | 4.0 | 0.00 | 0.00 | 0.00 | 84 | 1012.7 |
| 20260508091116 | 58 | 0 | 1.0 | 2.0 | 0.00 | 0.00 | 0.00 | 84 | 1013.0 |
| 20260508090117 | 58 | 0 | 1.0 | 2.0 | 0.00 | 0.00 | 0.00 | 84 | 1013.1 |
| 20260508085117 | 58 | 0 | 1.0 | 2.0 | 0.00 | 0.00 | 0.00 | 84 | 1013.1 |
| 20260508084136 | 58 | 0 | 2.0 | 3.0 | 0.00 | 0.00 | 0.00 | 84 | 1013.3 |
| 20260508083116 | 58 | 0 | 1.0 | 4.0 | 0.00 | 0.00 | 0.00 | 84 | 1013.3 |
| 20260508082116 | 58 | 0.0 | 3.0 | 0.00 | 0.00 | 0.00 | 84 | 1013.4 | |
| 20260508081116 | 58 | 0 | 1.0 | 2.0 | 0.00 | 0.00 | 0.00 | 83 | 1013.5 |
| 20260508080116 | 59 | 0 | 1.0 | 2.0 | 0.00 | 0.00 | 0.00 | 83 | 1013.9 |
| 20260508075116 | 59 | 0 | 3.0 | 7.0 | 0.00 | 0.00 | 0.00 | 83 | 1013.9 |
| 20260508074116 | 59 | 0 | 2.0 | 6.0 | 0.00 | 0.00 | 0.00 | 83 | 1013.7 |
| 20260508073121 | 59 | 0 | 1.0 | 2.0 | 0.00 | 0.00 | 0.00 | 82 | 1013.8 |
| 20260508072116 | 59 | 0.0 | 2.0 | 0.00 | 0.00 | 0.00 | 82 | 1013.8 | |
| 20260508071116 | 59 | 0 | 2.0 | 4.0 | 0.00 | 0.00 | 0.00 | 82 | 1014.1 |
| 20260508070116 | 60 | 0.0 | 1.0 | 0.00 | 0.00 | 0.00 | 81 | 1014.3 | |
| 20260508065116 | 60 | 0.0 | 1.0 | 0.00 | 0.00 | 0.00 | 81 | 1014.5 | |
| 20260508064116 | 60 | 0 | 1.0 | 3.0 | 0.00 | 0.00 | 0.00 | 80 | 1014.6 |
| 20260508063116 | 60 | 0 | 1.0 | 4.0 | 0.00 | 0.00 | 0.00 | 80 | 1014.6 |
| 20260508062116 | 61 | 0 | 3.0 | 4.0 | 0.00 | 0.00 | 0.00 | 79 | 1014.5 |
| 20260508061116 | 61 | 0 | 1.0 | 2.0 | 0.00 | 0.00 | 0.00 | 79 | 1014.4 |
| 20260508060116 | 61 | 0 | 1.0 | 4.0 | 0.00 | 0.00 | 0.00 | 80 | 1014.6 |
| 20260508055116 | 60 | 0 | 3.0 | 4.0 | 0.00 | 0.00 | 0.00 | 80 | 1014.7 |
| 20260508054116 | 60 | 0 | 4.0 | 5.0 | 0.00 | 0.00 | 0.00 | 80 | 1014.8 |
| 20260508053116 | 61 | 0 | 3.0 | 5.0 | 0.00 | 0.00 | 0.00 | 80 | 1014.7 |
| 20260508052116 | 61 | 0 | 4.0 | 7.0 | 0.00 | 0.00 | 0.00 | 80 | 1014.7 |
| 20260508051116 | 61 | 0 | 2.0 | 7.0 | 0.00 | 0.00 | 0.00 | 79 | 1014.7 |
| 20260508050116 | 61 | 180 | 2.0 | 2.0 | 0.00 | 0.00 | 0.00 | 79 | 1014.6 |
| 20260508045116 | 61 | 0 | 2.0 | 5.0 | 0.00 | 0.00 | 0.00 | 78 | 1014.6 |
| 20260508044116 | 61 | 180 | 2.0 | 4.0 | 0.00 | 0.00 | 0.00 | 77 | 1014.5 |
| 20260508043115 | 62 | 203 | 3.0 | 4.0 | 0.00 | 0.00 | 0.00 | 77 | 1014.7 |
| 20260508042116 | 62 | 0 | 4.0 | 8.0 | 0.00 | 0.00 | 0.00 | 76 | 1014.6 |
| 20260508041115 | 62 | 0 | 2.0 | 5.0 | 0.00 | 0.00 | 0.00 | 76 | 1014.5 |
| 20260508040115 | 62 | 0 | 3.0 | 6.0 | 0.00 | 0.00 | 0.00 | 76 | 1014.6 |
| 20260508035115 | 62 | 0 | 3.0 | 5.0 | 0.00 | 0.00 | 0.00 | 74 | 1014.6 |
| 20260508034115 | 63 | 0 | 4.0 | 7.0 | 0.00 | 0.00 | 0.00 | 73 | 1014.5 |
| 20260508033115 | 63 | 203 | 2.0 | 5.0 | 0.00 | 0.00 | 0.00 | 72 | 1014.4 |
| 20260508032116 | 63 | 0 | 3.0 | 6.0 | 0.00 | 0.00 | 0.00 | 70 | 1014.3 |
| 20260508031115 | 64 | 0 | 2.0 | 5.0 | 0.00 | 0.00 | 0.00 | 68 | 1014.4 |
| 20260508030116 | 65 | 0 | 2.0 | 5.0 | 0.00 | 0.00 | 0.00 | 66 | 1014.3 |
| 20260508025115 | 65 | 0 | 2.0 | 4.0 | 0.00 | 0.00 | 0.00 | 63 | 1014.2 |
| 20260508024115 | 66 | 0 | 3.0 | 5.0 | 0.00 | 0.00 | 0.00 | 62 | 1013.9 |
| 20260508023115 | 66 | 0 | 2.0 | 3.0 | 0.00 | 0.00 | 0.00 | 61 | 1013.9 |
| 20260508022115 | 66 | 135 | 1.0 | 2.0 | 0.00 | 0.00 | 0.00 | 61 | 1013.8 |
| 20260508021117 | 66 | 0 | 4.0 | 5.0 | 0.00 | 0.00 | 0.00 | 61 | 1013.7 |
| 20260508020117 | 67 | 0 | 3.0 | 5.0 | 0.00 | 0.00 | 0.00 | 60 | 1013.8 |
| 20260508015117 | 67 | 0 | 3.0 | 5.0 | 0.00 | 0.00 | 0.00 | 61 | 1013.7 |
| 20260508014117 | 67 | 0 | 3.0 | 4.0 | 0.00 | 0.00 | 0.00 | 60 | 1013.5 |
| 20260508013117 | 67 | 0 | 5.0 | 6.0 | 0.00 | 0.00 | 0.00 | 60 | 1013.5 |
| 20260508012117 | 68 | 0 | 4.0 | 6.0 | 0.00 | 0.00 | 0.00 | 59 | 1013.4 |
| 20260508011137 | 68 | 0 | 2.0 | 4.0 | 0.00 | 0.00 | 0.00 | 58 | 1013.3 |
| 20260508010117 | 69 | 135 | 2.0 | 4.0 | 0.00 | 0.00 | 0.00 | 56 | 1013.5 |
| 20260508005117 | 69 | 0 | 2.0 | 4.0 | 0.00 | 0.00 | 0.00 | 56 | 1013.6 |
| 20260508004117 | 70 | 0 | 2.0 | 4.0 | 0.00 | 0.00 | 0.00 | 55 | 1013.4 |
| 20260508003117 | 70 | 0 | 2.0 | 5.0 | 0.00 | 0.00 | 0.00 | 54 | 1013.4 |
| 20260508002117 | 71 | 0 | 5.0 | 7.0 | 0.00 | 0.00 | 0.00 | 51 | 1013.6 |
| 20260508001117 | 71 | 0 | 3.0 | 5.0 | 0.00 | 0.00 | 0.00 | 50 | 1013.4 |
| 20260508000117 | 72 | 0 | 2.0 | 4.0 | 0.00 | 0.00 | 0.00 | 48 | 1013.4 |
| 20260507235137 | 72 | 0 | 5.0 | 7.0 | 0.00 | 0.00 | 0.00 | 48 | 1013.5 |
| 20260507234117 | 72 | 0 | 5.0 | 7.0 | 0.00 | 0.00 | 0.00 | 48 | 1013.5 |
| 20260507233117 | 73 | 135 | 3.0 | 4.0 | 0.00 | 0.00 | 0.00 | 48 | 1013.6 |
| 20260507232117 | 73 | 158 | 2.0 | 4.0 | 0.00 | 0.00 | 0.00 | 46 | 1013.7 |
| 20260507231117 | 73 | 0 | 2.0 | 4.0 | 0.00 | 0.00 | 0.00 | 46 | 1013.8 |
| 20260507230117 | 74 | 0 | 4.0 | 6.0 | 0.00 | 0.00 | 0.00 | 46 | 1013.9 |
| 20260507225117 | 73 | 68 | 1.0 | 3.0 | 0.00 | 0.00 | 0.00 | 43 | 1013.8 |
| 20260507224117 | 73 | 90 | 5.0 | 6.0 | 0.00 | 0.00 | 0.00 | 43 | 1013.9 |
| 20260507223117 | 74 | 0 | 4.0 | 6.0 | 0.00 | 0.00 | 0.00 | 42 | 1014.0 |
| 20260507222117 | 73 | 248 | 2.0 | 2.0 | 0.00 | 0.00 | 0.00 | 41 | 1014.0 |
| 20260507221137 | 75 | 0 | 6.0 | 8.0 | 0.00 | 0.00 | 0.00 | 40 | 1014.2 |
| 20260507220117 | 74 | 293 | 3.0 | 4.0 | 0.00 | 0.00 | 0.00 | 42 | 1014.2 |
| 20260507215116 | 73 | 0.0 | 2.0 | 0.00 | 0.00 | 0.00 | 42 | 1014.3 | |
| 20260507214116 | 73 | 0 | 1.0 | 3.0 | 0.00 | 0.00 | 0.00 | 42 | 1014.4 |